ARIANE 44LP DEB, 25542

Orbit data source: Space-Track

ARIANE 44LP DEB, 25542 is space debris in HEO originally from a launch on Sun, 11 Dec 1988 UTC launched from the French Guiana (FRGUI). Debris objects in space refer to the collection of defunct objects orbiting the Earth. Examples of debris include non-operational satellites, rocket bodies, and fragments generated from explosions, collisions, or faulty payload assembly.

Loading next visibility...
Identifier
25542, 1988-109J
Orbit
HEO
Country
Flag of FRFR
Related business
Manufacturer
Unknown
Mission
Spacecraft
Bus & Motor
Unknown
Mass
Unknown
Launch date (UTC)
1988-12-11 (38 years ago)
Launch vehicle
Unknown
Launch site
French Guiana (FRGUI)
Object type
Payload
Rocket body
Debris
Shape & HBR
Unknown shape, 2.0 m
Radar Cross Section
Large (>1 m²)

Expand to show TLE details & history
Last TLE update: 4 days ago

TLE from 4 days ago
0 ARIANE 44LP DEB
1 25542U 88109J   26254.07426027 -.00000053  00000-0  63697-3 0  9994
2 25542   6.6242 149.2007 7147462 225.5564  47.6701  2.33861106240486
Epoch: 2026-09-11T01:46Z
TLE epoch observation values (Epoch: 2026-09-11T01:46:56.087Z)
Latitude
0.00021°
Longitude
132.66031°
Altitude
17,236.528 km
Speed
4.139 km/s
True Right ascension
09h 57m 59s
True Declination
0° 00' 01"
Sunlit
Object was in daylight at epoch
Visualization orbit readout
Latitude
Unknown
Longitude
Unknown
Altitude
Unknown
Speed
Unknown
Apparent Right ascension
Unknown
Apparent Declination
Unknown
Sunlit
N/A
Visualization observer readout
Local Sidereal Time
07:34:34
Azimuth
Unknown
Elevation
Unknown
Doppler factor
Unknown
Orbital elements
Apogee altitude
34,742.385 km
Perigee altitude
462.4 km
Semi-major axis
23,980.53 km
Eccentricity
0.71475
Inclination
6.6242°
RAAN
149.2007°
Arg. of periapsis
225.5564°
True anomaly
134.64173°
Mean anomaly
47.6701°
Eccentric anomaly
88.60999°
Mean motion
0.58446 °/min
Orbital period
615.95 mins
BSTAR
0.00063697
Loading maneuver chart data...
Computing Atmospheric mass density...
Loading historical data...
Loading historical data...
Loading historical data...
Loading historical data...
Loading historical data...
Loading historical data...
Loading historical data...

Documentation

Showing up to 5 results
|